Location: Mat�lon
(46.2791°N, 7.1028°E)
Time: 18:59:33
(UTC+00:00)

Tiangong - Pass Details

Date: 07 October 2021
Orbit: 382 x 384 km, 41.5° (Epoch: 20 October)

Event Time Altitude Azimuth Distance (km) Brightness Sun altitude
Exits shadow 04:17:50 13° 201° (SSW) 1,226 3.3 -14.7°
Drops below altitude 10° 04:19:11 10° 175° (S) 1,392 3.9 -14.4°
Sets 04:22:02 0° 147° (SSE) 2,240 5.3 -13.9°
